Weather observations for the past three days for
Victoria, Victoria Regional Airport
Imperial (Metric)
Date Time (cdt) Wind (mph) Vis. (mi.) Weather Sky Cond. Temperature (ºF) Relative Humidity Wind Chill (°F) Heat Index (°F) Pressure Precipitation (in)
Air Dwpt 6 hour altimeter (in) sea level (mb) 1 hr 3 hr 6 hr
Max. Min.
22 19:51 SE 10 10.00 A Few Clouds FEW041 84.9 73.9 70% 92 29.95 1014.2
22 18:51 E 9 10.00 Fair CLR 87.1 73.9 91.9 87.1 65% 95 29.95 1013.9
22 17:51 SE 8 10.00 Partly Cloudy FEW050 SCT060 90 75 62% 100 29.94 1013.8
22 16:51 E 15 10.00 Partly Cloudy FEW050 SCT060 91 72 54% 99 29.96 1014.3
22 15:51 E 13 10.00 Fair CLR 91 72 54% 99 29.97 1014.6
22 14:51 E 13 G 21 10.00 A Few Clouds FEW049 90 72 56% 97 29.99 1015.3
22 13:51 E 12 10.00 A Few Clouds FEW050 89.1 73 59% 97 30.01 1016.1
22 12:51 E 9 10.00 Mostly Cloudy BKN046 88 72 90 75.9 59% 95 30.03 1016.5
22 11:51 E 12 G 20 10.00 A Few Clouds FEW036 88 73 61% 96 30.03 1016.8
22 10:51 E 10 10.00 Fair CLR 87.1 73 63% 95 30.04 1017.0
22 09:51 E 7 10.00 A Few Clouds FEW018 84.9 75.9 75% 94 30.05 1017.3
22 08:51 NE 7 9.00 Fair CLR 82 77 85% 90 30.06 1017.6
22 07:51 NE 8 7.00 Fair CLR 78.1 75.9 93% 81 30.05 1017.5
22 06:51 NE 6 5.00 Fog/Mist CLR 75.9 75 77 75 97% 75 30.05 1017.3
22 04:51 NE 5 6.00 Fog/Mist SCT028 75.9 75 97% 75 30.04 1017.1
22 03:51 NE 5 7.00 Overcast SCT020 OVC026 77 75 94% 78 30.04 1017.0
22 02:51 NE 6 6.00 Fog/Mist BKN024 77 75 94% 78 30.04 1017.1
22 01:51 E 6 8.00 Fair CLR 77 75.9 96% 78 30.04 1017.2
22 00:51 E 6 9.00 Fair CLR 77 75.9 87.1 77 96% 78 30.05 1017.4
21 23:51 E 3 9.00 Fair CLR 78.1 75.9 93% 81 30.06 1017.8
21 22:51 E 5 10.00 Fair CLR 79 75.9 90% 83 30.06 1017.7
21 21:51 SE 6 10.00 Fair CLR 79 75 88% 83 30.04 1017.2
21 20:51 E 7 10.00 Fair CLR 81 75 82% 87 30.03 1016.7
21 19:51 SE 14 10.00 Fair CLR 84 75.9 77% 93 30.02 1016.3
21 18:51 SE 12 10.00 Fair CLR 84.9 75 91 75 72% 93 30.01 1016.1 0.14
21 17:51 SE 14 10.00 A Few Clouds FEW042 88 73.9 63% 97 30.01 1016.1
21 16:51 E 7 10.00 A Few Clouds FEW065 FEW080 86 78.1 77% 98 30.03 1016.6 0.02
21 15:51 E 9 6.00 Light Rain Fog/Mist FEW037 BKN065 OVC085 75 73.9 96% 73 30.05 1017.5 0.12 0.12
21 14:51 SE 13 10.00 Partly Cloudy SCT035 SCT042 90 77 66% 103 30.04 1017.1
21 13:51 E 14 G 20 10.00 Mostly Cloudy SCT035 SCT042 BKN050 91 75.9 61% 103 30.06 1017.8
21 12:51 E 10 10.00 Mostly Cloudy FEW037 SCT047 BKN095 89.1 75.9 90 75.9 65% 100 30.08 1018.5
21 11:51 E 10 G 17 10.00 Mostly Cloudy FEW030 BKN036 89.1 75.9 65% 100 30.09 1018.8
21 10:51 E 12 10.00 Overcast BKN017 BKN028 OVC035 87.1 77 72% 99 30.1 1018.9
21 09:51 E 12 10.00 Overcast BKN015 BKN023 OVC028 84 77 80% 94 30.1 1019.0
21 08:51 NE 8 8.00 A Few Clouds FEW021 79 78.1 97% 83 30.08 1018.4
21 07:51 NE 9 7.00 Fair CLR 77 77 100% 78 30.06 1017.8
21 06:51 NE 7 7.00 Fair CLR 75.9 75.9 77 75.9 100% 75 30.05 1017.3
21 05:51 NE 8 6.00 Fog/Mist OVC028 75.9 75 97% 75 30.05 1017.3
21 04:51 NE 6 6.00 Fog/Mist OVC032 75.9 75 97% 75 30.05 1017.4
21 03:51 NE 7 8.00 Overcast OVC028 75.9 75 97% 75 30.05 1017.4
21 02:51 NE 5 7.00 Overcast SCT029 OVC085 77 75.9 96% 78 30.06 1017.6
21 01:51 N 5 8.00 Overcast FEW007 SCT016 OVC025 77 75.9 96% 78 30.06 1017.9
21 00:51 E 8 10.00 Overcast FEW008 BKN026 OVC032 75.9 75 86 75.9 97% 75 30.08 1018.5 0.01 0.01
20 23:51 E 7 9.00 Overcast SCT022 OVC033 77 77 100% 78 30.07 1018.2
20 22:51 E 7 10.00 Overcast FEW020 OVC027 78.1 75.9 93% 81 30.06 1017.9
20 21:51 E 7 10.00 Partly Cloudy FEW020 SCT027 80.1 75.9 87% 85 30.05 1017.3
20 20:51 E 8 10.00 Overcast OVC029 82 75.9 82% 89 30.03 1016.7
20 19:51 E 15 G 25 10.00 A Few Clouds FEW029 84 75 74% 92 30.01 1016.1
20 18:51 E 17 G 28 10.00 Partly Cloudy SCT031 SCT040 86 75.9 90 81 72% 96 29.99 1015.5 0.01
20 17:51 E 21 G 32 10.00 Partly Cloudy and Breezy SCT028 88 75.9 68% 99 29.99 1015.3
20 16:51 E 25 G 35 10.00 Partly Cloudy and Breezy FEW032 SCT045 89.1 77 68% 102 29.99 1015.3
20 15:51 E 20 G 31 10.00 Mostly Cloudy SCT032 BKN042 86 78.1 77% 98 29.99 1015.4 0.01
20 14:51 E 22 G 35 10.00 Partly Cloudy and Breezy SCT032 SCT047 89.1 77 68% 102 30 1015.7 0.01
20 13:51 E 18 G 35 10.00 Mostly Cloudy SCT029 SCT046 BKN050 86 79 80% 100 30 1015.8
20 12:51 E 20 G 28 10.00 Mostly Cloudy FEW028 SCT035 BKN047 87.1 79 87.1 77 77% 101 30.01 1016.1 0.04 0.08
20 11:51 E 10 10.00 Mostly Cloudy FEW016 SCT027 BKN090 79 77 94% 83 30.02 1016.4 0.04
20 10:51 E 15 G 22 10.00 A Few Clouds FEW018 FEW029 FEW039 86 79 80% 100 30.01 1015.9
20 09:51 E 14 G 22 9.00 Mostly Cloudy FEW021 SCT029 BKN036 84 79 85% 96 30 1015.8
20 08:51 NE 13 G 22 8.00 Mostly Cloudy FEW020 BKN029 79 78.1 97% 83 29.99 1015.3
20 07:51 NE 10 7.00 Mostly Cloudy BKN015 78.1 78.1 100% 81 29.96 1014.5
20 06:51 NE 10 6.00 Fog/Mist FEW021 BKN032 OVC047 77 77 77 77 100% 78 29.94 1013.6 0.03
20 05:51 NE 12 7.00 Overcast FEW013 BKN021 OVC031 77 77 100% 78 29.93 1013.2 0.02
20 04:51 NE 9 8.00 Mostly Cloudy FEW017 BKN025 BKN031 77 75.9 96% 78 29.91 1012.8
20 03:51 NE 12 8.00 Mostly Cloudy BKN036 BKN043 BKN075 77 77 100% 78 29.91 1012.8 0.01
20 02:51 NE 12 9.00 Overcast BKN032 BKN044 OVC080 77 77 100% 78 29.92 1012.8
20 01:51 NE 13 9.00 Overcast FEW018 BKN035 OVC048 77 77 100% 78 29.92 1012.9 0.01
20 00:51 NE 13 7.00 Light Rain SCT028 BKN033 OVC049 77 77 77 75.9 100% 78 29.93 1013.2 0.04 0.12
19 23:51 NE 15 G 22 9.00 Overcast FEW013 BKN027 OVC040 77 75.9 96% 78 29.94 1013.7 0.01
19 22:51 NE 13 7.00 Light Rain SCT025 BKN033 OVC047 75.9 75.9 100% 75 29.92 1012.9 0.01
19 21:51 NE 15 10.00 Mostly Cloudy FEW026 SCT036 BKN049 75.9 75.9 100% 75 29.91 1012.5 0.01 0.06
19 20:51 NE 13 9.00 Light Rain FEW026 FEW100 SCT120 77 75.9 96% 78 29.89 1012.0 0.05
Date Time (cdt) Wind (mph) Vis. (mi.) Weather Sky Cond. Air Dwpt Max. Min. Relative Humidity Wind Chill (°F) Heat Index (°F) altimeter (in) sea level (mb) 1 hr 3 hr 6 hr
6 hour
Temperature (ºF) Pressure Precipitation (in)